Regional Weather Roundup
Issued by NWS San Diego, CA

Home | Current Version | Previous Version | Text Only | Print | Product List | Glossary On
Versions: 1 2 3 4 5 6 7 8 9 10 11 12 13 14 15 16 17 18 19 20 21 22 23 24 25 26 27 28 29 30 31 32 33 34 35 36 37 38 39 40 41 42 43 44 45 46 47 48 49 50
000
ASUS46 KSGX 250704
RWRSGX

SAN DIEGO HOURLY WEATHER ROUNDUP
NATIONAL WEATHER SERVICE SAN DIEGO CA
1200 AM PDT TUE JUL 25 2017

NOTE: "FAIR" INDICATES FEW OR NO CLOUDS BELOW 12,000 FEET WITH NO
SIGNIFICANT WEATHER AND/OR OBSTRUCTIONS TO VISIBILITY.

CAZ042-043-060-061-PZZ750-775-250800-

GREATER SAN DIEGO AREA

CITY           SKY/WX    TMP DP  RH WIND       PRES   REMARKS
SAN DIEGO AP   MOCLDY    71  63  75 VRB3      29.96F
NATIONAL CITY    N/A     70  65  84 CALM      29.97R
CHULA VISTA      N/A     69  65  89 CALM      29.88R
IMPERIAL BEACH MOCLDY    69  63  81 SW5       29.96R
BROWN FIELD    FAIR      67  64  90 CALM      29.96R
MIRAMAR MCAS   FAIR      71  62  73 SW3       29.96R
MONTGOMERY FLD FAIR      70  63  78 SW3       29.96R
GILLESPIE FLD  FAIR      70  63  78 CALM      29.96S

$$

NORTH SAN DIEGO COUNTY

CITY           SKY/WX    TMP DP  RH WIND       PRES   REMARKS
CAMP PENDLETON CLOUDY    59  58  96 CALM      29.95R
OCEANSIDE AP   CLOUDY    72  66  81 S6        29.94R
OCEANSIDE HBR    N/A     71  66  84 CALM      29.97R
VISTA            N/A     69  64  83 CALM      29.93R
CARLSBAD       CLOUDY    69  65  86 S5        29.95R
DEL MAR          N/A     68  65  89 CALM      29.96S
LA JOLLA SCRIP   N/A     68  65  89 S2        29.94S
FALLBROOK        N/A     68  67  98 CALM      29.96R
ESCONDIDO        N/A     69  64  84 CALM      29.96R
SAN MARCOS       N/A     67  63  85 CALM      29.96R
POWAY            N/A     68  62  79 CALM      29.96R

$$

EAST SAN DIEGO COUNTY

CITY           SKY/WX    TMP DP  RH WIND       PRES   REMARKS
RAMONA         FAIR      66  63  90 W5        29.98R
SANTEE LAKES     N/A     68  63  84 CALM      29.93S
LA MESA          N/A     67  63  87 CALM      29.88R
JAMUL            N/A     65  62  88 CALM      29.94R
DESCANSO N       N/A     62  59  91 CALM      29.83R
CAMPO            N/A     65  62  90 CALM      29.98R

$$

ORANGE COUNTY AND THE LOS ANGELES BASIN

CITY           SKY/WX    TMP DP  RH WIND       PRES   REMARKS
JOHN WAYNE AP  CLOUDY    70  65  84 S5        29.94R
LAKE FOREST FR   N/A     67  62  83 CALM      29.83R
HUNTINGTON BCH   N/A     68  65  90 W3        29.96R
LOS ALAMITOS   CLOUDY    68  64  87 S3        29.94R
FULLERTON      FAIR      70  64  81 SE3       29.94R
LONG BEACH     FAIR      70  64  81 NW5       29.94R
L.A. AP        MOCLDY    68  64  87 W7        29.94R
L.A. DOWNTOWN  FAIR      69  64  84 W3        29.94R

$$

THE INLAND EMPIRE

CITY           SKY/WX    TMP DP  RH WIND       PRES   REMARKS
CORONA         FAIR      69  63  81 W6        29.95R
CHINO          FAIR      71  63  75 W6        29.96R
ONTARIO        MOCLDY    71  60  68 W9        29.95R
SAN BERNARDINO FAIR      72  62  70 W5        29.96R
RIVERSIDE AP   FAIR      71  63  75 W6        29.95R
MORENO VALLEY    N/A     69  66  88 CALM      28.07R
MARCH ARB      FAIR      70  63  79 S3        29.97R
HORSETHIEF CYN   N/A     68  58  70 CALM      29.94R
PERRIS           N/A     68  61  77 S5        29.95S
HEMET EAST       N/A     69  60  71 CALM      29.96S
FRENCH VALLEY  FAIR      68  57  68 CALM      29.98R
TEMECULA         N/A     69  64  82 S2        30.03R

$$

SAN BERNARDINO AND RIVERSIDE COUNTY MOUNTAINS

CITY           SKY/WX    TMP DP  RH WIND       PRES   REMARKS
BIG BEAR AP    CLOUDY    57  54  88 CALM      30.23S
PINE COVE        N/A     64  54  71 CALM      29.84S

$$

SOUTHERN DESERT INCLUDING THE COACHELLA VALLEY

CITY           SKY/WX    TMP DP  RH WIND       PRES   REMARKS
PALM SPRINGS   FAIR      89  60  37 NW12      29.84R
THOUSAND PALMS   N/A     88  58  35 NW6       29.79R
PALM DESERT      N/A     89  59  36 CALM        N/A
THERMAL        FAIR      91  58  32 NW8       29.76R
BLYTHE         MOCLDY    89  72  56 S5        29.81S HX  96
IMPERIAL AP    FAIR      90  66  45 SE9       29.76R
EL CENTRO NAS  FAIR      87  65  47 SE9       29.79R
MEXICALI       CLEAR     82  68  61 SE8       29.80R

$$

UPPER DESERT

CITY           SKY/WX    TMP DP  RH WIND       PRES   REMARKS
VICTORVILLE AP FAIR      75  52  43 CALM      29.98R
HESPERIA         N/A     72  53  50 SW5       29.92R
PALMDALE       FAIR      79  32  18 VRB5      29.95R
LANCASTER      FAIR      76  49  38 SW13      29.94R
EDWARDS AFB    CLOUDY    77  48  35 SW15      29.90R
DAGGETT        FAIR      82  67  60 N7        29.89
29 PALMS N     MOCLDY    82  70  66 CALM      29.98R
NEEDLES        MOCLDY    92  68  45 SW6       29.85R HX  96

$$

REGIONAL REPORTS

CITY           SKY/WX    TMP DP  RH WIND       PRES   REMARKS
SANTA BARBARA  CLOUDY    63  61  93 W5        29.93R
SANDBERG       CLOUDY    66  53  63 S8        30.10R
LAS VEGAS NV   CLOUDY    85  65  51 S8        29.90R
PHOENIX AZ     MOCLDY    86  71  60 SE7       29.89R
TIJUANA        PTCLDY    68  63  83 NW3       29.98R
ENSENADA NW      N/A     68  32  26 CALM      29.92S

$$

OFFSHORE ISLANDS

CITY           SKY/WX    TMP DP  RH WIND       PRES   REMARKS
CATALINA ARPT  FAIR      62  61  96 S7        29.98R
SAN NICOLAS IS CLOUDY    60  32  34 SW6       29.95S

$$

MARINE AND OFFSHORE BUOY REPORTS

STATION/POSITION SKY/WX   TEMP    WIND        PRES    VSBY  SWELL
                          AIR SEA DIR/SP/G                  HT/PER/DIR
                          (F)     (DEG/KT/KT) (MB)    (MI)  (FT/S/D)
TANNER BANKS               63 64  220/  6/  8 1013.8          3/270/10
S CLEMENTE BASIN              71  220/  6/  8 1013.8          3/200/14
SAN NICOLAS IS.               67                N/A           2/300/12
SO. S. ROSA ISLA           61 63  310/  6/  6 1013.3          5/330/10
W. S. BARBARA CH           60 61  260/  6/  8 1013.4R         3/280/ 9
M. S. BARBARA CH           62 66  270/  6/  8 1014.1R         2/250/ 8
S. MONICA BASIN               71  230/  6/  8 1013.5R         2/190/11
S PEDRO CHANNEL               70                N/A           2/170/12
CMP PENDLETON NS              76                N/A           2/210/14
OCEANSIDE OFFSHR              74                N/A           2/190/11
TORREY PINES OTR              75                N/A           2/210/13
SAN DIEGO BAY                 77              1014.6
POINT LOMA SOUTH              70                N/A           2/190/11

$$




USA.gov is the U.S. government's official web portal to all federal, state and local government web resources and services.